Regional Weather Roundup
Issued by NWS

Home | Current Version | Previous Version | Text Only | Print | Product List | Glossary Off
Versions: 1 2 3 4 5 6 7 8 9 10 11 12 13 14 15 16 17 18 19 20 21 22 23 24 25 26 27 28 29 30 31 32 33 34 35 36 37 38 39 40 41 42 43 44 45 46 47 48 49 50

000
ASUS43 KIND 230459
RWRIN

WEATHER ROUNDUP FOR INDIANA
NATIONAL WEATHER SERVICE INDIANAPOLIS IN
100 AM EDT WED MAY 23 2018

NOTE: "FAIR" INDICATES FEW OR NO CLOUDS BELOW 12,000 FEET WITH NO
SIGNIFICANT WEATHER AND/OR OBSTRUCTIONS TO VISIBILITY.

* - STATION DOES NOT REPORT WEATHER SUCH AS PRECIPITATION OR FOG.

+ - STATION NOT QUALITY CONTROLLED BY THE NATIONAL WEATHER SERVICE.
    USE DATA WITH CAUTION...ESPECIALLY DEWPOINT AND RELATIVE
    HUMIDITY OBSERVATIONS.

INZ001>003-010>013-019-020-230600-
NORTHWEST INDIANA

CITY           SKY/WX    TMP DP  RH WIND       PRES   REMARKS
MICHIGAN CITY+ FOG       50  50 100 CALM      30.11R VSB<1/4
MONTICELLO +   FAIR      58  56  93 N5        30.08S

$$

LMZ046-743>745-230600-
SOUTHERN LAKE MICHIGAN

STATION/POSITION TIME  TEMP    WIND        PRES    WAVE
                       AIR SEA DIR/SP/G            HT
                 (UTC) (F)     (DEG/KT/KT) (MB)    (FT)
BURNS HARBOR     0440   52        CALM     1019.6S
MICHIGAN CITY    0430   51     120/  1/  1   N/A
5NW MICH CITY    0450   51 54  130/  2/  4   N/A     1

$$

INZ004-005-014>016-021>024-230600-
NORTH CENTRAL INDIANA

CITY           SKY/WX    TMP DP  RH WIND       PRES   REMARKS
GOSHEN         CLOUDY    56  54  93 N3        30.09R
SOUTH BEND     FAIR      49  47  93 N5        30.10S

$$

INZ006>009-017-018-025>027-230600-
NORTHEAST INDIANA

CITY           SKY/WX    TMP DP  RH WIND       PRES   REMARKS
ANGOLA *+      FAIR      55  54  94 CALM      30.08S
FORT WAYNE     MOCLDY    61  57  87 N6        30.08S

$$

INZ028-029-035-036-043>045-051>053-230600-
WEST CENTRAL INDIANA

CITY           SKY/WX    TMP DP  RH WIND       PRES   REMARKS
CRAWFORDSVL +  FAIR      61  58  88 N5        30.08S
GREENCASTLE +  FAIR      63  55  77 N5        30.09R
LAFAYETTE      FAIR      60  56  86 N3        30.08R
TERRE HAUTE    FAIR      68  60  75 N7        30.07R

$$

INZ030>032-037>040-046>048-054>057-064-065-230600-
CENTRAL INDIANA

CITY           SKY/WX    TMP DP  RH WIND       PRES   REMARKS
ANDERSON       FAIR      62  57  84 CALM      30.08S
INDIANAPOLIS   FAIR      66  57  72 NE9       30.07R
-EAGLE CREEK   FAIR      66  57  72 NE3       30.07R
KOKOMO +       FAIR      60  56  86 N6        30.09S
MT COMFORT *+  FAIR      61  59  94 N7        30.08S
SHELBYVILLE    FAIR      67  57  70 N7        30.06R

$$

INZ033-034-041-042-049-050-058-059-230600-
EAST CENTRAL INDIANA

CITY           SKY/WX    TMP DP  RH WIND       PRES   REMARKS
MUNCIE         FAIR      62  57  83 CALM      30.07S
RICHMOND +     FAIR      61  59  94 N6        30.08S

$$

INZ060-061-067>069-081>083-085>088-230600-
SOUTHWEST INDIANA

CITY           SKY/WX    TMP DP  RH WIND       PRES   REMARKS
EVANSVILLE     FAIR      75  62  64 NW6       30.04R
HUNTINGBURG +  FAIR      69  65  86 CALM      30.04R

$$

INZ062-063-066-070>080-084-089>092-230600-
SOUTH CENTRAL AND SOUTHEAST INDIANA

CITY           SKY/WX    TMP DP  RH WIND       PRES   REMARKS
BLOOMINGTON    FAIR      68  60  75 NE6       30.06R
FRENCH LICK *+ FAIR      68  55  64 NE3       30.05R
SEYMOUR +      FAIR      72  59  64 NE9       30.05R

$$





USA.gov is the U.S. government's official web portal to all federal, state and local government web resources and services.